OpenBCM V1.13 (Linux)

Packet Radio Mailbox

DB0FHN

[JN59NK Nuernberg]

 Login: GUEST





  
LU1HVK > KEP      02.10.19 08:34l 244 Lines 12026 Bytes #999 (0) @ WW
BID : 32708_LU1HVK
Read: DJ6UX DF7EAV GUEST
Subj: TLE 02 10
Path: DB0FHN<DB0BLO<DB0ERF<DB0RES<WA7V<XE1FH<VE2PKT<N3HYM<IV3BVK<IK5FKA<
      LU9HGS<LU1HVK
Sent: 191002/0523Z 32708@LU1HVK.2594.CBA.ARG.SA LinBPQ6.0.19

                         _    _   _ _ _   ___     ___  __
                        | |  | | | / | | | \ \   / / |/ /
                        | |  | | | | | |_| |\ \ / /| ' /
                        | |__| |_| | |  _  | \ V / | . \
                        |_____\___/|_|_| |_|  \_/  |_|\_\

     BBS/NODO - CORDOBA (LEONES-FF87UH) - LU1HVK-4 NODO - LU1HVK-3 APRS

+----------------------------------------------------------------------------+
OSCAR 7
1  7530U 74089B   19274.88288235 -.00000041 +00000-0 +23061-4 0  9992
2  7530 101.7583 241.5124 0012237 142.5121 272.1630 12.53640041053467
OSCAR 11 (UoSAT 2)
1 14781U 84021B   19274.88256610 +.00000052 +00000-0 +12456-4 0  9994
2 14781 097.6062 294.5966 0007937 344.3927 015.7042 14.83109235893355
OSCAR 19 (LUSAT)
1 20442U 90005G   19274.82851903 -.00000002 +00000-0 +15422-4 0  9996
2 20442 098.6562 216.6887 0011349 194.4791 165.6069 14.32933652551373
EYESAT A
1 22825U 93061C   19274.86949916 -.00000018 +00000-0 +11117-4 0  9998
2 22825 098.9120 265.9478 0009318 056.7506 303.4567 14.30067428356716
ITAMSAT
1 22826U 93061D   19274.91660231 -.00000022 +00000-0 +92901-5 0  9991
2 22826 098.9060 265.9742 0009717 046.1188 314.0794 14.30401466356945
RADIO ROSTO
1 23439U 94085A   19274.79163552 -.00000047 +00000-0 -13481-3 0  9991
2 23439 064.8158 306.1661 0145312 092.7780 268.9784 11.27568098019749
JAS 2
1 24278U 96046B   19274.84620789 -.00000040 +00000-0 -27436-5 0  9998
2 24278 098.5537 054.0603 0349745 327.5526 030.4533 13.53093566141771
TECHSAT 1B
1 25397U 98043D   19274.82989036 -.00000009  00000-0  15460-4 0  9998
2 25397  98.6954 213.7308 0002396  89.6110 270.5343 14.23671295102836
ISS (ZARYA)
1 25544U 98067A   19275.13912456  .00002461  00000-0  50890-4 0  9994
2 25544  51.6436 190.8820 0007493 105.8771 219.6985 15.50133790191844
PCSAT
1 26931U 01043C   19274.86118563 -.00000036 +00000-0 +18180-4 0  9992
2 26931 067.0499 092.2899 0007435 269.7710 090.2539 14.30553808939947
SAUDISAT 1C
1 27607U 02058C   19274.86796544 -.00000010 +00000-0 +19382-4 0  9998
2 27607 064.5540 088.0302 0075997 236.0879 123.2981 14.75574904902420
CUTE-1
1 27844U 03031E   19274.90242973 +.00000035 +00000-0 +35352-4 0  9991
2 27844 098.6855 281.5475 0010987 087.1696 273.0739 14.22196892843204
CUBESAT XI 4
1 27848U 03031J   19274.50233781 +.00000020 +00000-0 +29051-4 0  9991
2 27848 098.6931 281.6751 0010875 098.7196 261.5214 14.21789670843009
MOZHAYETS 4
1 27939U 03042A   19274.82900827  .00000033  00000-0  14571-4 0  9996
2 27939  98.0562  48.6857 0014191  94.9394 265.3434 14.66805966855954
CUBESAT XI 5
1 28895U 05043F   19274.85400465 +.00000132 +00000-0 +34103-4 0  9990
2 28895 097.9746 054.0720 0017240 024.2561 335.9450 14.63694930742634
CUTE-1.7+APD II
1 32785U 08021C   19274.83483519 +.00000205 +00000-0 +27705-4 0  9992
2 32785 097.5554 269.6193 0011510 275.3073 084.6831 14.88350564619250
DELFI C3
1 32789U 08021G   19274.72467032  .00001136  00000-0  79461-4 0  9996
2 32789  97.4546 321.1734 0013663 122.7782 237.4765 15.07141672622788
SEEDS
1 32791U 08021J   19274.81013081 +.00000377 +00000-0 +43546-4 0  9991
2 32791 097.5315 275.6660 0011876 245.2374 114.7609 14.90877351619690
YUBELEINY
1 32953U 08025A   19274.91743693 +.00000020 +00000-0 +75656-4 0  9997
2 32953 082.4976 079.3178 0018654 259.6786 100.2190 12.43091296515384
PRISM (HITOMI)
1 33493U 09002B   19274.75827540 +.00000725 +00000-0 +68886-4 0  9998
2 33493 098.1216 199.6969 0014421 189.5574 170.5374 14.96749372580856
KKS-1 (KISEKI)
1 33499U 09002H   19274.85799852 +.00000071 +00000-0 +18562-4 0  9999
2 33499 098.3428 116.8894 0008147 226.8622 133.1905 14.75465463574305
SWISSCUBE
1 35932U 09051B   19274.71922958 +.00000105 +00000-0 +34708-4 0  9995
2 35932 098.5981 083.8326 0007272 195.4604 164.6371 14.56313297532022
BEESAT
1 35933U 09051C   19274.71589958  .00000086  00000-0  30533-4 0  9995
2 35933  98.6000  85.6318 0005227 207.0710 153.0215 14.56398824532177
ITUPSAT 1
1 35935U 09051E   19274.90299651 +.00000059 +00000-0 +24755-4 0  9995
2 35935 098.6110 086.0544 0007570 206.7473 153.3333 14.55554808531912
XIWANG-1 (HOPE-1)
1 36122U 09072B   19274.69816497 -.00000009 +00000-0 +85883-4 0  9991
2 36122 100.0774 272.1587 0007971 101.5648 258.6368 13.16351739470699
TISAT 1
1 36799U 10035E   19274.90159904 +.00000381 +00000-0 +44457-4 0  9993
2 36799 098.1696 070.6332 0013628 100.3294 259.9460 14.91165312500244
JUGNU
1 37839U 11058B   19274.78495295 +.00000329 +00000-0 +33718-4 0  9997
2 37839 019.9620 057.4730 0019055 045.5860 091.3178 14.12659983412029
SRMSAT
1 37841U 11058D   19274.68772157  .00000319  00000-0  30149-4 0  9998
2 37841  19.9718 117.0105 0011808 269.7508 154.2999 14.10640178411535
M-CUBED/EXP-1 PRIME
1 37855U 11061F   19274.80411307 +.00001354 +00000-0 +75001-4 0  9994
2 37855 101.7140 224.3599 0173071 125.1181 236.6391 15.05606708432126
HORYU 2
1 38340U 12025D   19274.60311782  .00000180  00000-0  34330-4 0  9995
2 38340  98.3197 316.2905 0012300 145.1515 215.0501 14.75753678396635
STRAND 1
1 39090U 13009E   19274.57832384  .00000023  00000-0  23308-4 0  9992
2 39090  98.4786 118.7332 0008877 344.7331  15.3585 14.35098831345433
SOMP
1 39134U 13015E   19274.74517072 +.00001529 +00000-0 +78254-4 0  9993
2 39134 064.8642 040.0358 0036129 286.3518 073.3638 15.20354836356186
BEESAT 3
1 39135U 13015F   19274.85455885 +.00000997 +00000-0 +58645-4 0  9999
2 39135 064.8685 059.4719 0034996 295.2813 064.4689 15.17622744355814
BEESAT 2
1 39136U 13015G   19274.79978615 +.00000974 +00000-0 +58635-4 0  9998
2 39136 064.8691 063.7723 0026771 300.8869 058.9624 15.17042351355728
CUBEBUG 1
1 39153U 13018D   19274.85332764 +.00000215 +00000-0 +35010-4 0  9996
2 39153 097.9808 012.4019 0016204 213.7970 146.2211 14.80600503347292
ZACUBE
1 39417U 13066B   19274.82442663 +.00000218 +00000-0 +33559-4 0  9998
2 39417 097.5628 282.4185 0060103 050.3036 310.3455 14.81153798316604
TRITON 1
1 39427U 13066M   19274.91065815 +.00000159 +00000-0 +33320-4 0  9999
2 39427 097.6889 245.8550 0113473 187.8934 172.0490 14.67883706313585
GOMX 1
1 39430U 13066Q   19274.80665349  .00000166  00000-0  39599-4 0  9991
2 39430  97.7569 224.4899 0149941 283.1359  75.3157 14.59290384311931
HUMSAT D
1 39433U 13066T   19274.82427868 +.00000331 +00000-0 +37569-4 0  9997
2 39433 097.5435 317.9787 0029526 311.7713 048.0983 14.92259357317578
CUBEBUG 2
1 39440U 13066AA  19274.90597654 +.00000191 +00000-0 +33279-4 0  9993
2 39440 097.6089 267.1649 0081695 102.9124 258.1227 14.75890879314298
FUNCUBE 1
1 39444U 13066AE  19274.90173966 +.00000256 +00000-0 +37685-4 0  9990
2 39444 097.5601 284.5365 0059107 043.6071 316.9792 14.81980678314928
UWE-3
1 39446U 13066AG  19274.52685583 +.00000214 +00000-0 +34792-4 0  9993
2 39446 097.5851 273.9355 0071538 078.2237 282.6988 14.78426035314168
SPROUT
1 39770U 14029E   19274.77986331  .00000452  00000-0  55956-4 0  9994
2 39770  97.8881  17.4183 0009856  98.4152 261.8172 14.87436697290452
UNISAT 6
1 40012U 14033C   19274.82838632 +.00000181 +00000-0 +34124-4 0  9999
2 40012 097.7422 136.8339 0059511 117.8825 242.8430 14.74011702284178
DUCHIFAT 1
1 40021U 14033M   19274.73017239 +.00000487 +00000-0 +55415-4 0  9996
2 40021 097.9237 199.6717 0014335 065.8479 294.4236 14.90691823287191
QB50P1
1 40025U 14033R   19274.73705765 +.00000332 +00000-0 +41258-4 0  9997
2 40025 097.9032 194.2398 0013865 075.1993 285.0759 14.88989054286442
CHUBUSAT 1
1 40300U 14070C   19274.78871425  .00000791  00000-0  37249-4 0  9990
2 40300  97.3184 346.2745 0021209  47.7996 100.6783 15.22186040272003
NUDT-PHONESAT
1 40900U 15049B   19274.77450038  .00002030  00000-0  88981-4 0  9992
2 40900  97.4381 283.0961 0012610 169.0004 295.6160 15.23081943223659
ZDPS 2A
1 40901U 15049C   19274.95693397 +.00000740 +00000-0 +39852-4 0  9999
2 40901 097.4615 279.2740 0012873 190.3577 226.1006 15.17849237223205
ZDPS 2B
1 40902U 15049D   19274.80845171  .00001360  00000-0  70690-4 0  9997
2 40902  97.4565 276.5383 0012893 188.3977 296.4125 15.17709153223154
XW-2A
1 40903U 15049E   19274.71882666  .00002248  00000-0  54348-4 0  9996
2 40903  97.3278 318.0337 0014925 121.0105   5.1621 15.42134788226435
KAITUO 1A
1 40904U 15049F   19274.79489759  .00000608  00000-0  35625-4 0  9996
2 40904  97.4699 275.0249 0013810 198.4590 285.8026 15.15446360222913
OBJECT G
1 40905U 15049G   19274.74844069  .00000335  00000-0  21798-4 0  9994
2 40905  97.4750 272.4216 0014877 194.3127 271.6654 15.14350526222773
XW-2C
1 40906U 15049H   19274.95926103 +.00000373 +00000-0 +23011-4 0  9990
2 40906 097.4708 275.3168 0014208 188.5399 226.1939 15.15762985222946
XW-2D
1 40907U 15049J   19274.92645425 +.00000937 +00000-0 +52207-4 0  9998
2 40907 097.4693 274.9649 0013529 185.8737 244.2552 15.15962359222950
LILACSAT 2
1 40908U 15049K   19274.94998376 +.00000168 +00000-0 +12906-4 0  9995
2 40908 097.4821 273.6992 0015056 194.1628 219.8807 15.13854243222737
XW-2F
1 40910U 15049M   19274.91842888 +.00001085 +00000-0 +57508-4 0  9997
2 40910 097.4645 277.1128 0014484 177.9727 245.2412 15.17440127222974
XW-2B
1 40911U 15049N   19274.89671742  .00000396  00000-0  24122-4 0  9994
2 40911  97.4709 275.6023 0013516 186.1474 236.9821 15.15886590222842
KAITUO 1B
1 40912U 15049P   19274.92079733 +.00001208 +00000-0 +59544-4 0  9990
2 40912 097.4509 280.9227 0015013 159.5268 264.2109 15.19768995223290
TIANWANG 1C (TW-1C)
1 40926U 15051B   19274.89030507  .00016982  00000-0  23073-3 0  9992
2 40926  97.1255 320.9933 0006916 355.8318 110.5636 15.57646946226528
TIANWANG 1B (TW-1B)
1 40927U 15051C   19274.83351693  .00015578  00000-0  22558-3 0  9996
2 40927  97.1279 320.0911 0007700   7.1796 116.2105 15.55933948226355
